Station Historical Data
Daily Summary for January 19, 2017 Units:  Metric    English   Both
« Previous Day
Next Day »
Daily Weekly Monthly Yearly Custom
  High: Low: Average:
Temperature: 2.4 °C 0.8 °C 1.4 °C
Dew Point: 1.8 °C -0.2 °C 0.4 °C
Humidity: 96% 90% 93%
Wind Speed: 22.5km/h 0km/h 7.1km/h
Wind Gust: 35.4km/h - -
Wind- - WSW
Pressure: 1019.9 hPa 1015.5 hPa -
Precipitation: 0 mm    
Historical Graphs
 
 
Tabular Data for January 19, 2017
Time Temperature Dew Point Pressure Wind Wind Speed Wind Gust Humidity Rainfall Rate (Hourly)
00:04 2.3 °C 1.7 °C 1017.5 hPa WSW 16.1 km/h 29 km/h 96% 0.25 mm
00:09 2.3 °C 1.7 °C 1017.5 hPa WSW 14.5 km/h 29 km/h 96% 0.25 mm
00:14 2.3 °C 1.7 °C 1017.2 hPa SW 12.9 km/h 30.6 km/h 96% 0.25 mm
00:19 2.3 °C 1.7 °C 1017.5 hPa West 20.9 km/h 27.4 km/h 96% 0 mm
00:24 2.3 °C 1.8 °C 1017.2 hPa WSW 16.1 km/h 29 km/h 96% 0 mm
00:29 2.3 °C 1.8 °C 1017.5 hPa WSW 16.1 km/h 30.6 km/h 96% 0 mm
00:34 2.4 °C 1.8 °C 1017.2 hPa WSW 16.1 km/h 30.6 km/h 96% 0 mm
00:39 2.3 °C 1.8 °C 1017.2 hPa WSW 14.5 km/h 25.7 km/h 96% 0 mm
00:44 2.3 °C 1.8 °C 1017.2 hPa SSW 9.7 km/h 20.9 km/h 96% 0 mm
00:49 2.3 °C 1.8 °C 1017.5 hPa WSW 9.7 km/h 24.1 km/h 96% 0.25 mm
00:54 2.3 °C 1.8 °C 1017.5 hPa SW 12.9 km/h 24.1 km/h 96% 0.25 mm
00:59 2.3 °C 1.6 °C 1017.5 hPa WSW 12.9 km/h 24.1 km/h 95% 0.25 mm
01:04 2.2 °C 1.5 °C 1017.5 hPa WSW 11.3 km/h 25.7 km/h 95% 0.25 mm
01:09 2.2 °C 1.5 °C 1017.5 hPa WSW 17.7 km/h 19.3 km/h 95% 0.25 mm
01:14 2.2 °C 1.4 °C 1017.5 hPa SW 17.7 km/h 20.9 km/h 95% 0.25 mm
01:19 2.2 °C 1.4 °C 1017.5 hPa WSW 6.4 km/h 22.5 km/h 95% 0.25 mm
01:24 2.2 °C 1.4 °C 1017.5 hPa WSW 9.7 km/h 22.5 km/h 95% 0.25 mm
01:29 2.1 °C 1.4 °C 1017.5 hPa WSW 11.3 km/h 24.1 km/h 95% 0.25 mm
01:34 2.1 °C 1.3 °C 1017.5 hPa WSW 11.3 km/h 24.1 km/h 95% 0.25 mm
01:39 2.1 °C 1.3 °C 1017.5 hPa WSW 9.7 km/h 25.7 km/h 95% 0.25 mm
01:44 2 °C 1.3 °C 1017.5 hPa South 19.3 km/h 19.3 km/h 95% 0.25 mm
01:49 2 °C 1.3 °C 1017.5 hPa WSW 9.7 km/h 24.1 km/h 95% 0 mm
01:54 2 °C 1.3 °C 1017.5 hPa SW 9.7 km/h 24.1 km/h 95% 0 mm
01:59 2 °C 1.3 °C 1017.5 hPa WSW 9.7 km/h 20.9 km/h 95% 0 mm
02:04 2 °C 1.3 °C 1017.5 hPa WSW 11.3 km/h 20.9 km/h 95% 0 mm
02:09 1.9 °C 1.2 °C 1017.8 hPa WSW 9.7 km/h 22.5 km/h 95% 0 mm
02:14 2 °C 1.3 °C 1017.8 hPa WNW 6.4 km/h 24.1 km/h 95% 0 mm
02:19 1.9 °C 1.2 °C 1017.8 hPa West 6.4 km/h 17.7 km/h 95% 0 mm
02:24 1.9 °C 1.2 °C 1017.8 hPa West 8 km/h 20.9 km/h 95% 0 mm
02:29 1.9 °C 1.2 °C 1017.8 hPa WSW 17.7 km/h 24.1 km/h 95% 0 mm
02:34 1.9 °C 1.2 °C 1017.8 hPa WSW 12.9 km/h 25.7 km/h 95% 0 mm
02:39 1.9 °C 1.2 °C 1017.8 hPa SW 17.7 km/h 25.7 km/h 95% 0 mm
02:44 1.9 °C 1.1 °C 1017.8 hPa WSW 12.9 km/h 25.7 km/h 94% 0 mm
02:49 1.9 °C 1.1 °C 1017.8 hPa WSW 11.3 km/h 27.4 km/h 94% 0 mm
02:54 2 °C 1.1 °C 1017.5 hPa WSW 14.5 km/h 27.4 km/h 94% 0 mm
02:59 1.9 °C 1.1 °C 1017.5 hPa SW 8 km/h 22.5 km/h 94% 0 mm
03:04 1.9 °C 1.1 °C 1017.5 hPa SW 12.9 km/h 27.4 km/h 94% 0 mm
03:09 1.9 °C 1 °C 1017.5 hPa WSW 14.5 km/h 32.2 km/h 94% 0 mm
03:14 1.9 °C 1 °C 1017.5 hPa WSW 14.5 km/h 32.2 km/h 94% 0 mm
03:19 1.8 °C 0.9 °C 1017.5 hPa SSW 6.4 km/h 27.4 km/h 94% 0 mm
03:24 1.8 °C 0.9 °C 1017.8 hPa SSW 14.5 km/h 33.8 km/h 94% 0 mm
03:29 1.8 °C 0.8 °C 1017.8 hPa West 9.7 km/h 24.1 km/h 93% 0 mm
03:34 1.7 °C 0.7 °C 1017.8 hPa WSW 14.5 km/h 35.4 km/h 93% 0 mm
03:39 1.7 °C 0.7 °C 1017.8 hPa WSW 14.5 km/h 35.4 km/h 93% 0 mm
03:44 1.7 °C 0.7 °C 1017.5 hPa WSW 14.5 km/h 29 km/h 93% 0 mm
03:49 1.7 °C 0.7 °C 1017.2 hPa WSW 14.5 km/h 30.6 km/h 93% 0 mm
03:54 1.7 °C 0.7 °C 1017.2 hPa WSW 16.1 km/h 30.6 km/h 93% 0 mm
03:59 1.7 °C 0.7 °C 1017.2 hPa West 16.1 km/h 33.8 km/h 93% 0 mm
04:04 1.7 °C 0.7 °C 1017.5 hPa SW 14.5 km/h 29 km/h 93% 0 mm
04:09 1.7 °C 0.6 °C 1017.5 hPa SW 17.7 km/h 29 km/h 92% 0 mm
04:14 1.7 °C 0.5 °C 1017.2 hPa West 8 km/h 29 km/h 92% 0 mm
04:19 1.7 °C 0.5 °C 1017.2 hPa WNW 22.5 km/h 29 km/h 92% 0 mm
04:24 1.6 °C 0.4 °C 1017.2 hPa West 9.7 km/h 22.5 km/h 92% 0 mm
04:29 1.7 °C 0.5 °C 1017.2 hPa West 8 km/h 25.7 km/h 92% 0 mm
04:34 1.7 °C 0.5 °C 1017.2 hPa West 11.3 km/h 25.7 km/h 92% 0 mm
04:39 1.6 °C 0.4 °C 1017.2 hPa WSW 12.9 km/h 27.4 km/h 92% 0 mm
04:49 1.6 °C 0.4 °C 1017.2 hPa West 9.7 km/h 22.5 km/h 92% 0 mm
04:54 1.6 °C 0.4 °C 1017.2 hPa West 12.9 km/h 20.9 km/h 92% 0 mm
04:59 1.6 °C 0.4 °C 1017.2 hPa WSW 11.3 km/h 27.4 km/h 92% 0 mm
05:04 1.6 °C 0.4 °C 1017.5 hPa West 12.9 km/h 27.4 km/h 92% 0 mm
05:09 1.6 °C 0.4 °C 1017.5 hPa West 11.3 km/h 24.1 km/h 92% 0 mm
05:14 1.6 °C 0.4 °C 1017.8 hPa West 8 km/h 22.5 km/h 92% 0 mm
05:19 1.5 °C 0.3 °C 1017.8 hPa SSW 11.3 km/h 24.1 km/h 92% 0 mm
05:29 1.4 °C 0.3 °C 1017.8 hPa WNW 8 km/h 20.9 km/h 92% 0 mm
05:34 1.4 °C 0.3 °C 1018.2 hPa WSW 11.3 km/h 17.7 km/h 92% 0 mm
05:39 1.4 °C 0.3 °C 1017.8 hPa West 11.3 km/h 25.7 km/h 92% 0 mm
05:44 1.4 °C 0.3 °C 1018.2 hPa WSW 12.9 km/h 22.5 km/h 92% 0 mm
05:49 1.4 °C 0.3 °C 1018.2 hPa West 6.4 km/h 25.7 km/h 92% 0 mm
05:54 1.4 °C 0.3 °C 1018.2 hPa WSW 4.8 km/h 22.5 km/h 92% 0 mm
05:59 1.4 °C 0.4 °C 1018.2 hPa West 8 km/h 20.9 km/h 93% 0 mm
06:04 1.4 °C 0.4 °C 1018.2 hPa West 11.3 km/h 25.7 km/h 93% 0 mm
06:09 1.4 °C 0.4 °C 1018.2 hPa West 12.9 km/h 25.7 km/h 93% 0 mm
06:14 1.4 °C 0.3 °C 1018.5 hPa West 12.9 km/h 24.1 km/h 92% 0 mm
06:19 1.4 °C 0.4 °C 1018.5 hPa SW 14.5 km/h 20.9 km/h 93% 0 mm
06:24 1.4 °C 0.4 °C 1018.5 hPa West 11.3 km/h 24.1 km/h 93% 0 mm
06:29 1.3 °C 0.2 °C 1018.5 hPa WSW 8 km/h 20.9 km/h 92% 0 mm
06:34 1.3 °C 0.2 °C 1018.5 hPa West 11.3 km/h 24.1 km/h 92% 0 mm
06:39 1.4 °C 0.2 °C 1018.5 hPa West 11.3 km/h 24.1 km/h 92% 0 mm
06:44 1.4 °C 0.2 °C 1018.5 hPa West 11.3 km/h 24.1 km/h 92% 0 mm
06:49 1.3 °C 0.2 °C 1018.5 hPa West 8 km/h 16.1 km/h 92% 0 mm
06:54 1.3 °C 0.2 °C 1018.5 hPa West 11.3 km/h 17.7 km/h 92% 0 mm
06:59 1.3 °C 0.2 °C 1018.5 hPa WNW 14.5 km/h 33.8 km/h 92% 0 mm
07:04 1.3 °C 0.1 °C 1018.5 hPa West 14.5 km/h 33.8 km/h 92% 0 mm
07:09 1.3 °C 0.2 °C 1018.5 hPa West 11.3 km/h 25.7 km/h 92% 0 mm
07:14 1.3 °C 0.1 °C 1018.5 hPa West 11.3 km/h 29 km/h 92% 0 mm
07:19 1.3 °C 0.1 °C 1018.5 hPa West 11.3 km/h 29 km/h 92% 0 mm
07:24 1.3 °C 0.1 °C 1018.5 hPa West 9.7 km/h 19.3 km/h 92% 0 mm
07:29 1.3 °C 0.1 °C 1018.8 hPa West 9.7 km/h 19.3 km/h 92% 0 mm
07:34 1.3 °C 0.1 °C 1018.8 hPa WSW 3.2 km/h 24.1 km/h 92% 0 mm
07:39 1.2 °C 0.1 °C 1018.8 hPa WSW 11.3 km/h 19.3 km/h 92% 0 mm
07:44 1.3 °C 0.1 °C 1018.8 hPa SW 8 km/h 19.3 km/h 92% 0 mm
07:49 1.2 °C 0.1 °C 1018.8 hPa WSW 3.2 km/h 19.3 km/h 92% 0 mm
07:54 1.2 °C 0.1 °C 1019.2 hPa SW 6.4 km/h 22.5 km/h 92% 0 mm
07:59 1.2 °C 0.1 °C 1019.2 hPa West 4.8 km/h 22.5 km/h 92% 0 mm
08:04 1.2 °C 0.2 °C 1019.2 hPa West 16.1 km/h 17.7 km/h 93% 0 mm
08:09 1.2 °C 0.2 °C 1019.2 hPa West 9.7 km/h 17.7 km/h 93% 0 mm
08:14 1.2 °C 0 °C 1019.2 hPa West 9.7 km/h 20.9 km/h 92% 0 mm
08:19 1.2 °C 0 °C 1019.2 hPa West 9.7 km/h 20.9 km/h 92% 0 mm
08:24 1.1 °C -0.1 °C 1019.2 hPa West 11.3 km/h 24.1 km/h 92% 0 mm
08:29 1.1 °C -0.1 °C 1019.2 hPa West 11.3 km/h 24.1 km/h 92% 0 mm
08:34 1.1 °C -0.1 °C 1019.2 hPa West 11.3 km/h 22.5 km/h 92% 0 mm
08:39 1.1 °C -0.1 °C 1019.2 hPa West 11.3 km/h 27.4 km/h 92% 0 mm
08:44 1.1 °C -0.1 °C 1019.2 hPa West 3.2 km/h 16.1 km/h 92% 0 mm
08:49 1.1 °C -0.1 °C 1019.2 hPa WSW 8 km/h 25.7 km/h 92% 0 mm
08:54 1.1 °C -0.1 °C 1019.2 hPa WSW 4.8 km/h 19.3 km/h 92% 0 mm
08:59 1.1 °C -0.1 °C 1019.2 hPa WSW 11.3 km/h 20.9 km/h 92% 0 mm
09:04 1.1 °C -0.1 °C 1019.5 hPa WNW 8 km/h 14.5 km/h 92% 0 mm
09:09 1.2 °C 0 °C 1019.5 hPa WNW 3.2 km/h 17.7 km/h 92% 0 mm
09:14 1.2 °C -0.2 °C 1019.5 hPa West 9.7 km/h 17.7 km/h 91% 0 mm
09:19 1.2 °C -0.1 °C 1019.5 hPa West 9.7 km/h 19.3 km/h 91% 0 mm
09:24 1.3 °C -0.1 °C 1019.5 hPa West 9.7 km/h 19.3 km/h 91% 0 mm
09:29 1.3 °C -0.1 °C 1019.5 hPa West 9.7 km/h 19.3 km/h 91% 0 mm
09:34 1.3 °C -0.1 °C 1019.5 hPa West 9.7 km/h 19.3 km/h 91% 0 mm
09:39 1.3 °C -0.1 °C 1019.5 hPa West 9.7 km/h 20.9 km/h 91% 0 mm
09:44 1.3 °C -0.1 °C 1019.9 hPa West 11.3 km/h 22.5 km/h 91% 0 mm
09:49 1.3 °C -0.1 °C 1019.9 hPa WSW 9.7 km/h 20.9 km/h 91% 0 mm
09:54 1.3 °C -0.1 °C 1019.9 hPa West 6.4 km/h 14.5 km/h 91% 0 mm
09:59 1.3 °C -0.1 °C 1019.9 hPa West 8 km/h 19.3 km/h 91% 0 mm
10:04 1.3 °C 0.1 °C 1019.9 hPa West 8 km/h 22.5 km/h 92% 0 mm
10:09 1.3 °C 0.1 °C 1019.9 hPa WNW 12.9 km/h 16.1 km/h 92% 0 mm
10:14 1.3 °C 0.1 °C 1019.9 hPa West 6.4 km/h 17.7 km/h 92% 0 mm
10:19 1.3 °C 0.1 °C 1019.9 hPa West 8 km/h 17.7 km/h 92% 0 mm
10:24 1.3 °C 0.1 °C 1019.9 hPa West 9.7 km/h 19.3 km/h 92% 0 mm
10:29 1.3 °C 0.2 °C 1019.9 hPa West 8 km/h 24.1 km/h 92% 0 mm
10:34 1.4 °C 0.3 °C 1019.9 hPa West 8 km/h 24.1 km/h 92% 0 mm
10:39 1.4 °C 0.1 °C 1019.9 hPa WNW 9.7 km/h 20.9 km/h 91% 0 mm
10:44 1.4 °C 0.1 °C 1019.9 hPa WNW 12.9 km/h 20.9 km/h 91% 0 mm
10:49 1.3 °C 0 °C 1019.9 hPa West 9.7 km/h 20.9 km/h 91% 0 mm
10:54 1.3 °C 0 °C 1019.9 hPa West 9.7 km/h 20.9 km/h 91% 0 mm
10:59 1.3 °C 0 °C 1019.9 hPa West 12.9 km/h 20.9 km/h 91% 0 mm
11:04 1.3 °C 0 °C 1019.5 hPa WSW 9.7 km/h 20.9 km/h 91% 0 mm
11:09 1.4 °C 0.2 °C 1019.5 hPa WSW 6.4 km/h 16.1 km/h 92% 0 mm
11:14 1.4 °C 0.1 °C 1019.5 hPa West 8 km/h 16.1 km/h 91% 0 mm
11:19 1.4 °C 0.1 °C 1019.5 hPa West 8 km/h 16.1 km/h 91% 0 mm
11:24 1.4 °C 0.1 °C 1019.5 hPa WNW 9.7 km/h 16.1 km/h 91% 0 mm
11:29 1.5 °C 0.2 °C 1019.5 hPa West 9.7 km/h 14.5 km/h 91% 0 mm
11:34 1.5 °C 0.1 °C 1019.5 hPa West 11.3 km/h 14.5 km/h 90% 0 mm
11:39 1.6 °C 0.2 °C 1019.2 hPa West 14.5 km/h 14.5 km/h 91% 0 mm
11:44 1.6 °C 0.3 °C 1019.2 hPa West 8 km/h 14.5 km/h 91% 0 mm
11:49 1.7 °C 0.3 °C 1019.2 hPa West 6.4 km/h 14.5 km/h 91% 0 mm
11:54 1.7 °C 0.4 °C 1018.8 hPa West 6.4 km/h 14.5 km/h 91% 0 mm
11:59 1.7 °C 0.3 °C 1018.8 hPa West 6.4 km/h 16.1 km/h 91% 0 mm
12:04 1.6 °C 0.2 °C 1018.5 hPa WSW 8 km/h 19.3 km/h 91% 0 mm
12:09 1.6 °C 0.3 °C 1018.5 hPa WSW 4.8 km/h 14.5 km/h 91% 0 mm
12:14 1.6 °C 0.2 °C 1018.5 hPa WSW 8 km/h 17.7 km/h 91% 0 mm
12:19 1.6 °C 0.2 °C 1018.5 hPa WSW 9.7 km/h 20.9 km/h 91% 0 mm
12:24 1.4 °C 0.1 °C 1018.5 hPa WSW 9.7 km/h 20.9 km/h 91% 0 mm
12:29 1.4 °C 0.3 °C 1018.2 hPa West 1.6 km/h 19.3 km/h 92% 0 mm
12:34 1.6 °C 0.4 °C 1018.2 hPa WSW 6.4 km/h 11.3 km/h 92% 0 mm
12:39 1.6 °C 0.4 °C 1018.2 hPa WSW 9.7 km/h 17.7 km/h 92% 0 mm
12:44 1.4 °C 0.3 °C 1017.8 hPa West 9.7 km/h 22.5 km/h 92% 0 mm
12:49 1.4 °C 0.3 °C 1017.8 hPa WSW 8 km/h 22.5 km/h 92% 0 mm
12:54 1.5 °C 0.3 °C 1017.8 hPa West 6.4 km/h 14.5 km/h 92% 0 mm
12:59 1.4 °C 0.3 °C 1017.8 hPa West 8 km/h 19.3 km/h 92% 0 mm
13:04 1.4 °C 0.3 °C 1017.8 hPa West 8 km/h 19.3 km/h 92% 0 mm
13:09 1.4 °C 0.3 °C 1017.8 hPa SW 9.7 km/h 14.5 km/h 92% 0 mm
13:14 1.4 °C 0.3 °C 1017.8 hPa West 6.4 km/h 14.5 km/h 92% 0 mm
13:19 1.4 °C 0.3 °C 1017.5 hPa SSW 6.4 km/h 16.1 km/h 92% 0 mm
13:24 1.5 °C 0.3 °C 1017.5 hPa West 9.7 km/h 12.9 km/h 92% 0 mm
13:29 1.4 °C 0.3 °C 1017.5 hPa West 4.8 km/h 14.5 km/h 92% 0 mm
13:34 1.5 °C 0.3 °C 1017.5 hPa WSW 6.4 km/h 16.1 km/h 92% 0 mm
13:39 1.6 °C 0.4 °C 1017.2 hPa West 6.4 km/h 12.9 km/h 92% 0 mm
13:44 1.6 °C 0.6 °C 1017.2 hPa West 6.4 km/h 12.9 km/h 93% 0 mm
13:49 1.5 °C 0.3 °C 1016.8 hPa West 6.4 km/h 12.9 km/h 92% 0 mm
13:54 1.4 °C 0.3 °C 1017.2 hPa West 6.4 km/h 12.9 km/h 92% 0 mm
13:59 1.4 °C 0.4 °C 1016.8 hPa West 6.4 km/h 12.9 km/h 93% 0 mm
14:04 1.4 °C 0.4 °C 1017.2 hPa West 6.4 km/h 12.9 km/h 93% 0 mm
14:09 1.4 °C 0.4 °C 1017.2 hPa West 6.4 km/h 11.3 km/h 93% 0 mm
14:14 1.4 °C 0.4 °C 1017.2 hPa West 3.2 km/h 12.9 km/h 93% 0 mm
14:19 1.4 °C 0.4 °C 1017.2 hPa West 3.2 km/h 11.3 km/h 93% 0 mm
14:24 1.4 °C 0.4 °C 1016.8 hPa West 8 km/h 9.7 km/h 93% 0 mm
14:29 1.4 °C 0.4 °C 1016.8 hPa West 6.4 km/h 9.7 km/h 93% 0 mm
14:34 1.4 °C 0.4 °C 1016.8 hPa West 8 km/h 11.3 km/h 93% 0 mm
14:39 1.4 °C 0.4 °C 1016.8 hPa WSW 3.2 km/h 8 km/h 93% 0 mm
14:44 1.5 °C 0.5 °C 1016.5 hPa WSW 4.8 km/h 9.7 km/h 93% 0 mm
14:49 1.5 °C 0.5 °C 1016.5 hPa WSW 6.4 km/h 11.3 km/h 93% 0 mm
14:54 1.5 °C 0.5 °C 1016.5 hPa WSW 1.6 km/h 11.3 km/h 93% 0 mm
14:59 1.6 °C 0.6 °C 1016.5 hPa WSW 1.6 km/h 8 km/h 93% 0 mm
15:04 1.4 °C 0.4 °C 1016.5 hPa WSW 4.8 km/h 9.7 km/h 93% 0 mm
15:09 1.4 °C 0.4 °C 1016.5 hPa West 4.8 km/h 14.5 km/h 93% 0 mm
15:14 1.3 °C 0.3 °C 1016.5 hPa WSW 8 km/h 11.3 km/h 93% 0 mm
15:19 1.3 °C 0.3 °C 1016.5 hPa WSW 6.4 km/h 11.3 km/h 93% 0 mm
15:24 1.3 °C 0.3 °C 1016.5 hPa WSW 6.4 km/h 11.3 km/h 93% 0 mm
15:29 1.3 °C 0.3 °C 1016.8 hPa West 4.8 km/h 11.3 km/h 93% 0 mm
15:34 1.3 °C 0.3 °C 1016.8 hPa West 4.8 km/h 11.3 km/h 93% 0 mm
15:39 1.4 °C 0.4 °C 1017.2 hPa West 6.4 km/h 9.7 km/h 93% 0 mm
15:44 1.3 °C 0.3 °C 1017.2 hPa WSW 4.8 km/h 9.7 km/h 93% 0 mm
15:49 1.4 °C 0.6 °C 1016.8 hPa WSW 4.8 km/h 9.7 km/h 94% 0 mm
15:54 1.4 °C 0.4 °C 1016.8 hPa WSW 4.8 km/h 9.7 km/h 93% 0 mm
15:59 1.4 °C 0.4 °C 1016.8 hPa WSW 4.8 km/h 8 km/h 93% 0 mm
16:04 1.4 °C 0.6 °C 1016.8 hPa WSW 4.8 km/h 8 km/h 94% 0 mm
16:09 1.4 °C 0.6 °C 1016.8 hPa WSW 1.6 km/h 6.4 km/h 94% 0 mm
16:14 1.4 °C 0.4 °C 1016.5 hPa WSW 4.8 km/h 6.4 km/h 93% 0 mm
16:19 1.3 °C 0.5 °C 1016.8 hPa WSW 1.6 km/h 6.4 km/h 94% 0 mm
16:24 1.3 °C 0.5 °C 1016.8 hPa WSW 3.2 km/h 6.4 km/h 94% 0 mm
16:29 1.4 °C 0.6 °C 1016.8 hPa WSW 3.2 km/h 6.4 km/h 94% 0 mm
16:34 1.3 °C 0.5 °C 1017.2 hPa SW 4.8 km/h 8 km/h 94% 0 mm
16:39 1.3 °C 0.5 °C 1017.2 hPa SW 3.2 km/h 6.4 km/h 94% 0 mm
16:44 1.3 °C 0.5 °C 1017.2 hPa SW 1.6 km/h 4.8 km/h 94% 0 mm
16:49 1.3 °C 0.3 °C 1016.8 hPa SW 1.6 km/h 4.8 km/h 93% 0 mm
16:54 1.3 °C 0.3 °C 1017.2 hPa SSW 3.2 km/h 6.4 km/h 93% 0 mm
16:59 1.3 °C 0.3 °C 1017.5 hPa SSW 3.2 km/h 6.4 km/h 93% 0 mm
17:04 1.3 °C 0.3 °C 1017.8 hPa SW 1.6 km/h 6.4 km/h 93% 0 mm
17:09 1.3 °C 0.3 °C 1017.8 hPa SSW 3.2 km/h 6.4 km/h 93% 0 mm
17:14 1.2 °C 0.4 °C 1017.8 hPa SW 1.6 km/h 8 km/h 94% 0 mm
17:19 1.2 °C 0.4 °C 1017.8 hPa SSW 1.6 km/h 4.8 km/h 94% 0 mm
17:24 1.2 °C 0.3 °C 1017.8 hPa SSW 3.2 km/h 6.4 km/h 94% 0 mm
17:29 1.2 °C 0.3 °C 1017.8 hPa SSW 3.2 km/h 8 km/h 94% 0 mm
17:34 1.2 °C 0.3 °C 1017.8 hPa SW 3.2 km/h 8 km/h 94% 0 mm
17:39 1.1 °C 0.3 °C 1017.8 hPa SW 3.2 km/h 6.4 km/h 94% 0 mm
17:44 1.1 °C 0.3 °C 1018.2 hPa SW 3.2 km/h 6.4 km/h 94% 0 mm
17:49 1.1 °C 0.2 °C 1018.2 hPa SW 3.2 km/h 8 km/h 94% 0.25 mm
17:54 1.1 °C 0.2 °C 1017.8 hPa SSW 1.6 km/h 6.4 km/h 94% 0.25 mm
17:59 1 °C 0.2 °C 1018.2 hPa SW 4.8 km/h 4.8 km/h 94% 0.25 mm
18:04 1 °C 0.2 °C 1017.8 hPa SSW 3.2 km/h 4.8 km/h 94% 0.25 mm
18:09 1 °C 0.2 °C 1018.2 hPa Calm   8 km/h 94% 0.25 mm
18:14 1 °C 0.2 °C 1018.2 hPa SW 6.4 km/h 6.4 km/h 94% 0.25 mm
18:19 0.9 °C 0.1 °C 1018.2 hPa SSW 3.2 km/h 6.4 km/h 94% 0.25 mm
18:24 0.9 °C 0.1 °C 1018.2 hPa SW 3.2 km/h 6.4 km/h 94% 0.25 mm
18:29 0.9 °C 0.1 °C 1018.2 hPa SW 3.2 km/h 6.4 km/h 94% 0.25 mm
18:34 0.9 °C 0.1 °C 1017.8 hPa SW 3.2 km/h 6.4 km/h 94% 0.25 mm
18:39 0.9 °C 0.1 °C 1017.8 hPa SW 3.2 km/h 8 km/h 94% 0.25 mm
18:44 0.9 °C 0.1 °C 1017.8 hPa SW 3.2 km/h 8 km/h 94% 0.25 mm
18:49 0.9 °C 0.1 °C 1017.8 hPa SW 3.2 km/h 8 km/h 94% 0 mm
18:54 0.8 °C 0 °C 1017.8 hPa Calm     94% 0 mm
18:59 0.8 °C 0 °C 1017.8 hPa SW 1.6 km/h 6.4 km/h 94% 0 mm
19:04 0.8 °C 0 °C 1017.8 hPa SW 1.6 km/h 6.4 km/h 94% 0 mm
19:09 0.8 °C 0 °C 1017.5 hPa Calm   4.8 km/h 94% 0 mm
19:14 0.8 °C 0 °C 1017.5 hPa SSW 3.2 km/h 3.2 km/h 94% 0 mm
19:19 0.8 °C 0 °C 1017.2 hPa SW 4.8 km/h 4.8 km/h 94% 0 mm
19:24 0.8 °C -0.1 °C 1017.2 hPa SSW 3.2 km/h 4.8 km/h 94% 0 mm
19:29 0.8 °C -0.1 °C 1017.2 hPa SSW 3.2 km/h 4.8 km/h 94% 0 mm
19:34 0.8 °C -0.1 °C 1016.8 hPa SSW 1.6 km/h 4.8 km/h 94% 0 mm
19:39 0.8 °C 0 °C 1017.2 hPa South 1.6 km/h 4.8 km/h 94% 0 mm
19:44 0.8 °C -0.1 °C 1016.8 hPa South 1.6 km/h 4.8 km/h 94% 0 mm
19:49 0.8 °C 0 °C 1017.2 hPa Calm     94% 0 mm
19:54 0.8 °C -0.1 °C 1017.2 hPa Calm     94% 0 mm
19:59 0.8 °C 0 °C 1017.2 hPa Calm     94% 0 mm
20:04 0.8 °C 0 °C 1016.8 hPa SSW 1.6 km/h 6.4 km/h 94% 0 mm
20:09 0.8 °C 0 °C 1017.2 hPa SSW 1.6 km/h 6.4 km/h 94% 0 mm
20:14 0.8 °C 0 °C 1017.2 hPa South 3.2 km/h 4.8 km/h 94% 0 mm
20:19 0.9 °C 0.1 °C 1017.2 hPa South 3.2 km/h 4.8 km/h 94% 0 mm
20:24 0.9 °C 0.1 °C 1016.8 hPa South 1.6 km/h 6.4 km/h 94% 0 mm
20:29 0.9 °C 0.1 °C 1017.2 hPa South 3.2 km/h 4.8 km/h 94% 0 mm
20:34 0.9 °C 0.1 °C 1017.2 hPa South 3.2 km/h 6.4 km/h 94% 0 mm
20:39 0.9 °C 0.1 °C 1016.8 hPa South 3.2 km/h 6.4 km/h 94% 0 mm
20:44 0.9 °C 0.1 °C 1016.8 hPa South 3.2 km/h 4.8 km/h 94% 0 mm
20:49 0.9 °C 0.1 °C 1016.5 hPa South 3.2 km/h 3.2 km/h 94% 0 mm
20:54 0.9 °C 0.1 °C 1016.5 hPa South 3.2 km/h 6.4 km/h 94% 0 mm
20:59 0.9 °C 0.1 °C 1016.5 hPa South 3.2 km/h 6.4 km/h 94% 0 mm
21:04 0.9 °C 0.2 °C 1016.5 hPa South 3.2 km/h 6.4 km/h 95% 0 mm
21:09 0.9 °C 0.2 °C 1016.5 hPa South 3.2 km/h 6.4 km/h 95% 0 mm
21:14 0.9 °C 0.2 °C 1016.5 hPa South 1.6 km/h 4.8 km/h 95% 0 mm
21:19 1 °C 0.3 °C 1016.5 hPa South 1.6 km/h 4.8 km/h 95% 0 mm
21:24 1 °C 0.3 °C 1016.5 hPa South 1.6 km/h 4.8 km/h 95% 0 mm
21:29 1 °C 0.3 °C 1016.5 hPa Calm   3.2 km/h 95% 0 mm
21:34 1 °C 0.3 °C 1016.5 hPa Calm   3.2 km/h 95% 0 mm
21:39 1 °C 0.3 °C 1016.5 hPa Calm     95% 0 mm
21:44 1 °C 0.3 °C 1016.5 hPa Calm     95% 0 mm
21:49 1 °C 0.3 °C 1016.5 hPa Calm     95% 0 mm
21:54 1 °C 0.3 °C 1016.5 hPa Calm     95% 0 mm
21:59 1 °C 0.3 °C 1016.5 hPa Calm     95% 0 mm
22:04 1 °C 0.3 °C 1016.5 hPa Calm     95% 0 mm
22:09 1 °C 0.3 °C 1016.5 hPa Calm     95% 0 mm
22:14 1 °C 0.3 °C 1016.1 hPa Calm     95% 0 mm
22:19 1.1 °C 0.3 °C 1016.1 hPa Calm     95% 0 mm
22:24 1.1 °C 0.3 °C 1016.1 hPa Calm     95% 0 mm
22:29 1 °C 0.3 °C 1016.1 hPa Calm     95% 0 mm
22:34 1.1 °C 0.3 °C 1016.1 hPa Calm     95% 0 mm
22:39 1.1 °C 0.3 °C 1015.8 hPa Calm     95% 0 mm
22:44 1.1 °C 0.3 °C 1016.1 hPa Calm     95% 0 mm
22:49 1.1 °C 0.3 °C 1016.1 hPa Calm     95% 0 mm
22:54 1.1 °C 0.3 °C 1015.8 hPa Calm     95% 0 mm
22:59 1.1 °C 0.3 °C 1015.8 hPa Calm     95% 0 mm
23:04 1.1 °C 0.3 °C 1015.8 hPa Calm     95% 0 mm
23:09 1.1 °C 0.4 °C 1015.8 hPa Calm     95% 0 mm
23:14 1.1 °C 0.4 °C 1015.8 hPa Calm     95% 0 mm
23:19 1.1 °C 0.4 °C 1015.8 hPa Calm     95% 0 mm
23:24 1.1 °C 0.4 °C 1015.8 hPa Calm   3.2 km/h 95% 0 mm
23:29 1.1 °C 0.4 °C 1015.8 hPa Calm   3.2 km/h 95% 0 mm
23:34 1.1 °C 0.4 °C 1015.8 hPa Calm     95% 0 mm
23:39 1.1 °C 0.4 °C 1015.8 hPa Calm     95% 0 mm
23:44 1.1 °C 0.4 °C 1015.5 hPa Calm     95% 0 mm
23:49 1.1 °C 0.4 °C 1015.5 hPa Calm     95% 0 mm
23:54 1.2 °C 0.4 °C 1015.5 hPa Calm     95% 0 mm
23:59 1.1 °C 0.4 °C 1015.5 hPa Calm     95% 0 mm
Buffalo, New York, USA
Compliments of Weather Underground - 2.5 mb